This demonstration page uses our WeatherBlox Daily Observations layout. Learn more.

40.92945, -100.16068

Hourly Observations for May 11, 2018

Temp ( °F °C ) Dew Point ( °F °C ) Humidity (%) Winds ( mph kmh ) Pressure ( in mb ) Visibility ( mi km ) Precip ( " mm )
12:15 am 00:15 Cloudy with Heavy Thunderstorms 53 11.4 51 10.4 94 94 NE 22 35 29.88 1012 4 6.43736 0.1 2.54
12:35 am 00:35 Windy with Storms Likely 52 11.2 51 10.3 94 94 ENE 29 46 29.74 1007 4 6.43736 0.44 11.176
12:55 am 00:55 Partly Cloudy with Thunderstorms 52 11.1 50 10 93 93 E 22 35 29.77 1008 10 16.0934 0.44 11.176
1:15 am 01:15 Mostly Cloudy 51 10.7 49 9.6 93 93 ENE 22 35 29.77 1008 10 16.0934 0 0
1:35 am 01:35 Cloudy with Light Thunderstorms 51 10.8 49 9.5 92 92 E 16 26 29.8 1009 10 16.0934 0.01 0.254
1:55 am 01:55 Cloudy with Thunderstorms 52 11 50 9.8 92 92 ENE 17 28 29.74 1007 7 11.26538 0.07 1.778
2:15 am 02:15 Cloudy with Heavy Thunderstorms 51 10.7 50 9.8 94 94 E 28 44 29.68 1005 2.5 4.02335 0.25 6.35
2:35 am 02:35 Mostly Cloudy 52 10.9 50 10.2 95 95 E 26 43 29.68 1005 5 8.0467 0.43 10.922
2:55 am 02:55 Cloudy 53 11.6 52 10.9 96 96 E 16 26 29.68 1005 10 16.0934 0.43 10.922
3:15 am 03:15 Cloudy 53 11.5 51 10.6 94 94 E 22 35 29.68 1005 10 16.0934 0 0
3:35 am 03:35 Cloudy 53 11.7 51 10.8 94 94 E 16 26 29.71 1006 10 16.0934 0 0
3:55 am 03:55 Cloudy 53 11.5 51 10.6 94 94 E 17 28 29.68 1005 10 16.0934 0 0
4:15 am 04:15 Cloudy 53 11.7 51 10.8 94 94 E 15 24 29.68 1005 10 16.0934 0 0
4:35 am 04:35 Cloudy 53 11.5 51 10.6 94 94 E 14 22 29.68 1005 10 16.0934 0 0
4:55 am 04:55 Cloudy 53 11.5 51 10.5 94 94 E 12 19 29.68 1005 10 16.0934 0 0
5:15 am 05:15 Cloudy 52 11.3 51 10.4 94 94 E 13 20 29.68 1005 10 16.0934 0 0
5:35 am 05:35 Cloudy 52 10.9 50 10 94 94 E 14 22 29.68 1005 10 16.0934 0 0
5:55 am 05:55 Cloudy 51 10.6 50 9.8 95 95 E 13 20 29.68 1005 7 11.26538 0 0
6:15 am 06:15 Cloudy 51 10.5 49 9.7 95 95 E 12 19 29.71 1006 7 11.26538 0 0
6:35 am 06:35 Cloudy with Mist and Fog 50 10 49 9.3 95 95 ENE 10 17 29.77 1008 4 6.43736 0 0
6:55 am 06:55 Cloudy with Mist and Fog 50 10 49 9.5 97 97 NNE 12 19 29.77 1008 4 6.43736 0 0
7:15 am 07:15 Cloudy with Mist and Fog 50 9.8 49 9.2 96 96 ENE 12 19 29.77 1008 2 3.21868 0 0
7:35 am 07:35 Cloudy with Mist and Fog 49 9.6 48 9 96 96 NNE 8 13 29.8 1009 2.5 4.02335 0 0
7:55 am 07:55 Cloudy with Mist and Fog 50 9.8 49 9.2 96 96 N 13 20 29.83 1010 2.5 4.02335 0 0
8:15 am 08:15 Cloudy with Mist and Fog 49 9.6 48 9 96 96 NNE 13 20 29.83 1010 1.75 2.816345 0 0
8:35 am 08:35 Cloudy with Mist and Fog 49 9.4 48 8.8 96 96 NNE 13 20 29.83 1010 2 3.21868 0 0
8:55 am 08:55 Cloudy with Mist and Fog 49 9.7 48 9.1 96 96 NNE 12 19 29.83 1010 2.5 4.02335 0 0
9:15 am 09:15 Cloudy with Mist and Fog 50 10.2 49 9.5 95 95 NNE 12 19 29.83 1010 4 6.43736 0 0
9:35 am 09:35 Cloudy with Mist and Fog 50 9.8 48 9 95 95 NNE 15 24 29.83 1010 3 4.82802 0 0
9:55 am 09:55 Cloudy with Mist and Fog 50 10 49 9.3 95 95 NNE 13 20 29.8 1009 3 4.82802 0 0
10:15 am 10:15 Cloudy with Mist and Fog 51 10.3 49 9.5 95 95 NNE 10 17 29.83 1010 3 4.82802 0 0
10:35 am 10:35 Cloudy with Mist and Fog 50 10.2 49 9.5 95 95 NNE 12 19 29.83 1010 3 4.82802 0 0
10:55 am 10:55 Cloudy with Mist and Fog 50 10 49 9.2 95 95 NNE 13 20 29.83 1010 3 4.82802 0 0
11:15 am 11:15 Cloudy with Mist and Fog 51 10.3 49 9.5 95 95 NNE 14 22 29.8 1009 4 6.43736 0 0
11:35 am 11:35 Cloudy with Mist and Fog 51 10.5 49 9.5 94 94 NNE 12 19 29.8 1009 4 6.43736 0 0
11:55 am 11:55 Cloudy with Mist and Fog 52 11.2 50 10 92 92 NE 10 17 29.77 1008 5 8.0467 0 0
12:15 pm 12:15 Cloudy with Mist and Fog 53 11.9 51 10.3 90 90 NE 8 13 29.77 1008 5 8.0467 0 0
12:35 pm 12:35 Cloudy 54 12.3 51 10.5 89 89 ENE 12 19 29.77 1008 7 11.26538 0 0
12:55 pm 12:55 Cloudy 55 12.8 52 11 89 89 NE 10 17 29.77 1008 7 11.26538 0 0
1:15 pm 13:15 Cloudy 56 13.1 52 11 87 87 NE 8 13 29.77 1008 7 11.26538 0 0
1:35 pm 13:35 Cloudy 57 13.8 53 11.4 86 86 NE 7 11 29.77 1008 10 16.0934 0 0
1:55 pm 13:55 Cloudy 58 14.4 53 11.9 85 85 NE 9 15 29.74 1007 10 16.0934 0 0
2:15 pm 14:15 Cloudy 59 14.9 54 12.1 83 83 NE 9 15 29.74 1007 10 16.0934 0 0
2:35 pm 14:35 Cloudy 59 15 54 12.4 85 85 NE 8 13 29.74 1007 10 16.0934 0 0
2:55 pm 14:55 Cloudy 60 15.3 54 12.4 83 83 NE 7 11 29.74 1007 10 16.0934 0 0
3:15 pm 15:15 Cloudy 60 15.3 55 12.5 84 84 NE 7 11 29.74 1007 10 16.0934 0 0
3:35 pm 15:35 Cloudy 60 15.5 55 12.6 83 83 NE 8 13 29.74 1007 10 16.0934 0 0
3:55 pm 15:55 Cloudy 60 15.3 55 12.5 84 84 NNE 10 17 29.74 1007 10 16.0934 0 0
4:15 pm 16:15 Cloudy 60 15.3 55 12.7 85 85 NE 9 15 29.74 1007 10 16.0934 0 0
4:35 pm 16:35 Cloudy 60 15.5 55 12.7 84 84 NE 13 20 29.74 1007 10 16.0934 0 0
4:55 pm 16:55 Cloudy 60 15.5 55 12.8 84 84 NE 13 20 29.74 1007 10 16.0934 0 0
5:15 pm 17:15 Cloudy 60 15.5 55 12.9 85 85 ENE 10 17 29.71 1006 10 16.0934 0 0
5:35 pm 17:35 Cloudy 60 15.6 56 13.1 85 85 ENE 10 17 29.74 1007 10 16.0934 0 0
5:55 pm 17:55 Cloudy 60 15.7 56 13.2 85 85 NE 10 17 29.74 1007 10 16.0934 0 0
6:15 pm 18:15 Cloudy 58 14.2 54 12.4 89 89 NE 15 24 29.77 1008 7 11.26538 0 0
6:35 pm 18:35 Cloudy 57 13.8 54 12.3 91 91 NE 13 20 29.77 1008 7 11.26538 0 0
6:55 pm 18:55 Cloudy with Mist and Fog 56 13.6 55 12.5 93 93 NE 14 22 29.77 1008 5 8.0467 0 0
7:15 pm 19:15 Cloudy with Mist and Fog 56 13.3 54 12.2 93 93 NE 14 22 29.77 1008 5 8.0467 0 0
7:35 pm 19:35 Cloudy with Mist and Fog 56 13.3 54 12 92 92 ENE 14 22 29.8 1009 5 8.0467 0 0
7:55 pm 19:55 Cloudy with Mist and Fog 55 13 53 11.9 93 93 NE 10 17 29.8 1009 5 8.0467 0 0
8:15 pm 20:15 Cloudy with Mist and Fog 55 12.8 53 11.8 94 94 NE 10 17 29.8 1009 3 4.82802 0 0
8:35 pm 20:35 Cloudy with Mist and Fog 55 12.6 53 11.7 94 94 NE 12 19 29.83 1010 3 4.82802 0 0
8:55 pm 20:55 Cloudy with Mist and Fog 55 12.6 53 11.8 95 95 ENE 13 20 29.8 1009 3 4.82802 0 0
9:15 pm 21:15 Cloudy with Mist and Fog 55 12.6 53 11.8 95 95 ENE 12 19 29.83 1010 3 4.82802 0 0
9:35 pm 21:35 Cloudy with Mist and Fog 55 12.6 54 12 96 96 ENE 12 19 29.83 1010 2.5 4.02335 0 0
9:55 pm 21:55 Cloudy with Mist and Fog 55 12.6 54 12 96 96 ENE 13 20 29.83 1010 2.5 4.02335 0 0
10:15 pm 22:15 Cloudy with Mist and Fog 55 12.6 54 12 96 96 NE 14 22 29.83 1010 3 4.82802 0 0
10:35 pm 22:35 Cloudy with Mist and Fog 55 12.6 54 12 96 96 NE 16 26 29.83 1010 3 4.82802 0 0
10:55 pm 22:55 Cloudy with Mist and Fog 55 12.6 54 12 96 96 ENE 14 22 29.85 1011 2.5 4.02335 0 0
11:15 pm 23:15 Cloudy with Mist and Fog 55 12.5 53 11.9 96 96 NE 16 26 29.85 1011 1.5 2.41401 0 0
11:35 pm 23:35 Cloudy with Mist and Fog 54 12.3 53 11.7 96 96 NE 15 24 29.85 1011 1.25 2.011675 0 0
11:55 pm 23:55 Cloudy with Mist and Fog 54 12.2 53 11.7 97 97 ENE 13 20 29.91 1013 1.5 2.41401 0 0

Powered by AerisWeather